User: anonymous   Login
Location: PSU-Greenbush Astrophysical Observatory
(37.5140°N, 94.9880°W)
Time: 14:03:47
(UTC-06:00)
Language:

Courier 1B - Orbit

View from above orbital plane
View from above orbital plane
View from above satellite
View from above satellite

Ground track
Ground track

The orbit data is extracted from the following two-line orbital elements,

1    58U 60013A   20029.43050031  .00000098  00000-0  22449-4 0  9994
2    58  28.3287  85.0010 0165068 350.0230   9.7062 13.46320704920261
Epoch (UTC): 29 January 2020 10:19:55
Eccentricity: 0.0165068
inclination: 28.3287°
perigee height: 962 km
apogee height: 1209 km
right ascension of ascending node: 85.0010°
argument of perigee: 350.0230°
revolutions per day: 13.46320704
mean anomaly at epoch: 9.7062°
orbit number at epoch: 92026

The dashed part of the orbit path shows where the satellite is in the earth's shadow,  

DLR